User: anonymous
Location: Caltech
(34.1382°N, 118.1253°W)
Time: 13:01:19
(UTC-07:00)
Language:

Cosmos 2084 - Orbit

View from above orbital plane
View from above orbital plane
View from above satellite
View from above satellite

Ground track
Ground track

The orbit data is extracted from the following two-line orbital elements,

1 20663U 90055A   14205.11931232  .00000211  00000-0  40815-4 0  1729
2 20663 062.7969 157.5103 0035971 299.2996 060.4503 14.89161082301924
Epoch (UTC): 24 July 2014 02:51:48
Eccentricity: 0.0035971
inclination: 62.7969°
perigee height: 575 km
apogee height: 625 km
right ascension of ascending node: 157.5103°
argument of perigee: 299.2996°
revolutions per day: 14.89161082
mean anomaly at epoch: 60.4503°
orbit number at epoch: 30192

The dashed part of the orbit path shows where the satellite is in the earth's shadow,  

DLR